Mount Holly, NJ

3:48 AM EDT on May 25, 2017 (GMT -0400)
South Jersey Regional

Weather History for KVAY - September, 2012

Change the Weather History Date:

Wednesday, September 12, 2012

  Actual Average (KPNE) Record (KPNE)
Temperature  
Mean Temperature 65 °F -  
Max Temperature 80 °F 76 °F 91 °F (2005)
Min Temperature 50 °F 58 °F 51 °F (2006)
Growing Degree Days 15 (Base 50)    
Moisture  
Dew Point 52 °F    
Average Humidity 68    
Maximum Humidity 93    
Minimum Humidity 39    
Precipitation  
Precipitation 0.00 in - - ()
Sea Level Pressure  
Sea Level Pressure 30.34 in    
Wind  
Wind Speed 0 mph (SSE)    
Max Wind Speed 5 mph    
Max Gust Speed -    
Visibility 10 miles    
Events      
Averages and records for this station are not official NWS values.
T = Trace of Precipitation, MM = Missing Value Source: NWS Daily Summary

Daily Weather History Graph

Daily Weather History Graph

Search for Another Location

Airport or City:

Trip Planner

Search our weather history database for the weather conditions in past years. The results will help you decide how hot, cold, wet, or windy it might be!

Date:

Astronomy

Sep. 12, 2012 Rise Set
Actual Time 6:38 AM EDT 7:12 PM EDT
Civil Twilight 6:10 AM EDT 7:39 PM EDT
Nautical Twilight 5:38 AM EDT 8:11 PM EDT
Astronomical Twilight 5:05 AM EDT 8:44 PM EDT
Moon 2:52 AM EDT (9/12) 4:58 PM EDT (9/12)
Length of Visible Light 13h 28m
Length of Day
12h 34m
Waning Crescent, 14% of the Moon is Illuminated
Sep 12
Waning Crescent
Sep 15
New
Sep 22
First Quarter
Sep 29
Full
Oct 8
Last Quarter

Hourly Weather History & Observations

Time (EDT) Temp. Heat Index Dew Point Humidity Pressure Visibility Wind Dir Wind Speed Gust Speed Precip Events Conditions
12:54 AM 54.0 °F - 52.0 °F 93% 30.30 in 10.0 mi Calm Calm - N/A   Clear
1:54 AM 54.0 °F - 51.1 °F 90% 30.30 in 10.0 mi Calm Calm - N/A   Clear
2:54 AM 53.1 °F - 50.0 °F 89% 30.30 in 10.0 mi Calm Calm - N/A   Clear
3:54 AM 52.0 °F - 48.9 °F 89% 30.31 in 10.0 mi Calm Calm - N/A   Clear
4:54 AM 51.1 °F - 48.9 °F 92% 30.32 in 10.0 mi Calm Calm - N/A   Clear
5:54 AM 50.0 °F - 48.0 °F 93% 30.33 in 10.0 mi Calm Calm - N/A   Clear
6:54 AM 50.0 °F - 46.9 °F 89% 30.35 in 10.0 mi Calm Calm - N/A   Clear
7:54 AM 54.0 °F - 52.0 °F 93% 30.36 in 10.0 mi Calm Calm - N/A   Clear
8:54 AM 63.0 °F - 55.9 °F 78% 30.37 in 10.0 mi Calm Calm - N/A   Clear
9:54 AM 70.0 °F - 54.0 °F 57% 30.38 in 10.0 mi Calm Calm - N/A   Clear
10:54 AM 73.9 °F - 53.1 °F 48% 30.38 in 10.0 mi Calm Calm - N/A   Clear
11:54 AM 75.0 °F - 52.0 °F 44% 30.37 in 10.0 mi Calm Calm - N/A   Clear
12:54 PM 77.0 °F - 53.1 °F 43% 30.36 in 10.0 mi Calm Calm - N/A   Clear
1:54 PM 78.1 °F - 53.1 °F 42% 30.34 in 10.0 mi Calm Calm - N/A   Clear
2:54 PM 78.1 °F - 51.1 °F 39% 30.33 in 10.0 mi Calm Calm - N/A   Clear
3:54 PM 80.1 °F 79.9 °F 53.1 °F 39% 30.32 in 10.0 mi Variable 3.5 mph - N/A   Clear
4:54 PM 79.0 °F - 53.1 °F 40% 30.31 in 10.0 mi South 4.6 mph - N/A   Clear
5:54 PM 77.0 °F - 54.0 °F 45% 30.31 in 10.0 mi SSE 3.5 mph - N/A   Clear
6:54 PM 73.0 °F - 55.9 °F 55% 30.32 in 10.0 mi Calm Calm - N/A   Clear
7:54 PM 68.0 °F - 54.0 °F 61% 30.33 in 10.0 mi SSE 3.5 mph - N/A   Clear
8:54 PM 64.9 °F - 54.0 °F 68% 30.35 in 10.0 mi Calm Calm - N/A   Clear
9:54 PM 62.1 °F - 54.0 °F 75% 30.35 in 10.0 mi Calm Calm - N/A   Clear
10:54 PM 60.1 °F - 54.0 °F 80% 30.36 in 10.0 mi Calm Calm - N/A   Clear
11:54 PM 57.9 °F - 54.0 °F 87% 30.37 in 10.0 mi Calm Calm - N/A   Clear